Tracking 20083 objects as of 10-Dec-2019
HD Live streaming from Space Station
objects crossing your sky now

RWASAT-1

Track RWASAT-1 now!
10-day predictions


NORAD ID: 44790
Int'l Code: 1998-067QT
Perigee: 415.5 km
Apogee: 426.9 km
Inclination: 51.6 °
Period: 92.8 minutes
Semi major axis: 6792 km
RCS: Unknown
Launch date: November 20, 1998
Source: Republic of Rwanda (RWA)
Launch site: TYURATAM MISSILE AND SPACE COMPLEX (TTMTR)
aabbcc
Your satellite tracking list
Your tracking list is empty




NASA's NSSDC Master Catalog

Two Line Element Set (TLE):
1 44790U 98067QV  19344.19656344 -.00000466  00000-0  00000+0 0  9999
2 44790  51.6451 208.5873 0008329  41.9363  47.1197 15.50914015  3080
Source of the keplerian elements: AFSPC